EW1736 Weather Reports


Display with metric or nautical units.
time (UTC)temp
F
wind
direction
speed
MPH
gust
MPH
rain 1hr
in
rain 24hr
in
rain mn
in
humidity
%
barometer
mb
20260831193928 56 74 5.0 15.0 0.00 0.06 0.00 59 1012.6
20260831191719 56 184 5.0 13.0 0.00 0.06 0.00 60 1012.5
20260831190221 55 227 5.0 17.0 0.00 0.06 0.00 61 1012.2
20260831184715 55 140 2.0 12.0 0.00 0.06 0.00 59 1012.0
20260831183205 55 236 4.0 20.0 0.00 0.06 0.00 59 1011.7
20260831181706 55 217 4.0 15.0 0.00 0.06 0.00 60 1011.3
20260831180202 56 186 5.0 14.0 0.00 0.06 0.00 62 1010.9
20260831174657 56 188 7.0 16.0 0.00 0.06 0.00 63 1010.7
20260831173158 56 301 7.0 19.0 0.00 0.06 0.00 63 1010.3
20260831171654 56 275 6.0 12.0 0.00 0.06 0.00 63 1010.0
20260831170154 56 207 5.0 12.0 0.00 0.06 0.00 63 1009.7
20260831164650 56 140 2.0 15.0 0.00 0.06 0.00 63 1009.7
20260831163141 56 284 9.0 18.0 0.00 0.06 0.00 64 1009.6
20260831161642 56 223 5.0 18.0 0.00 0.06 0.00 64 1009.4
20260831160137 55 104 2.0 25.0 0.00 0.06 0.00 65 1009.5
20260831154634 55 246 11.0 15.0 0.00 0.06 0.00 64 1009.6
20260831153133 56 167 15.0 33.0 0.00 0.06 0.00 62 1009.5
20260831152331 54 234 4.0 10.0 0.00 0.06 0.00 71 1009.8
20260831151632 54 234 4.0 10.0 0.00 0.06 0.00 71 1009.8
20260831150819 55 336 5.0 31.0 0.00 0.06 0.00 70 1009.4
20260831144625 56 234 9.0 20.0 0.00 0.06 0.00 68 1009.3
20260831143121 56 282 2.0 8.0 0.00 0.06 0.00 68 1009.2
20260831141622 56 87 2.0 15.0 0.00 0.06 0.00 68 1009.3
20260831140116 56 24 2.0 14.0 0.00 0.06 0.00 68 1009.1
20260831134617 55 279 5.0 14.0 0.00 0.06 0.00 70 1009.1
20260831133113 55 269 8.0 18.0 0.00 0.06 0.00 71 1008.9
20260831131609 55 252 13.0 24.0 0.00 0.06 0.00 72 1009.0
20260831130111 55 250 12.0 20.0 0.00 0.06 0.00 72 1009.0
20260831125300 56 223 15.0 24.0 0.00 0.06 0.00 71 1008.9
20260831123101 56 277 15.0 19.0 0.00 0.06 0.00 71 1009.0
20260831121556 56 244 13.0 22.0 0.00 0.06 0.00 69 1008.9
20260831120052 56 295 5.0 20.0 0.00 0.06 0.00 68 1008.9
20260831114554 56 273 4.0 11.0 0.00 0.06 0.06 67 1009.1
20260831113047 56 194 3.0 14.0 0.00 0.06 0.06 66 1009.0
20260831111548 56 301 7.0 16.0 0.00 0.06 0.06 67 1008.8
20260831110043 57 321 4.0 12.0 0.00 0.06 0.06 66 1008.8
20260831104540 57 282 4.0 15.0 0.00 0.06 0.06 66 1009.0
20260831103040 57 96 1.0 11.0 0.00 0.06 0.06 68 1008.8
20260831101535 56 24 2.0 15.0 0.00 0.06 0.06 69 1008.6
20260831100038 56 250 14.0 19.0 0.00 0.06 0.06 70 1008.5
20260831094532 56 59 4.0 11.0 0.00 0.06 0.06 68 1008.3
20260831093028 56 197 4.0 21.0 0.00 0.06 0.06 71 1008.3
20260831091523 56 232 7.0 17.0 0.00 0.06 0.06 70 1008.1
20260831090019 56 222 9.0 16.0 0.00 0.06 0.06 72 1008.1
20260831085218 56 281 5.0 14.0 0.00 0.06 0.06 72 1007.9
20260831083711 57 279 10.0 17.0 0.00 0.06 0.06 71 1007.8
20260831081510 57 270 11.0 18.0 0.00 0.06 0.06 69 1007.6
20260831080701 57 342 7.0 15.0 0.00 0.06 0.06 68 1007.5
20260831074509 57 284 5.0 24.0 0.00 0.06 0.06 69 1007.6
20260831073008 57 273 11.0 21.0 0.00 0.06 0.06 71 1007.5
20260831071503 57 211 13.0 26.0 0.00 0.06 0.06 70 1007.3
20260831065959 57 278 2.0 15.0 0.00 0.06 0.06 70 1007.3
20260831064455 57 200 12.0 19.0 0.00 0.06 0.06 71 1007.2
20260831063646 57 240 7.0 14.0 0.00 0.06 0.06 71 1007.4
20260831061451 56 198 11.0 21.0 0.00 0.06 0.06 74 1007.2
20260831060646 57 250 10.0 29.0 0.00 0.06 0.06 76 1007.1
20260831054442 57 279 16.0 24.0 0.01 0.06 0.06 75 1006.7
20260831052942 57 262 12.0 23.0 0.01 0.06 0.06 76 1006.5
20260831051438 57 237 15.0 22.0 0.01 0.06 0.06 77 1006.6
20260831045938 57 239 16.0 25.0 0.01 0.06 0.06 77 1006.7
20260831044434 57 257 13.0 26.0 0.00 0.06 0.06 76 1007.0
20260831043629 58 0 13.0 27.0 0.00 0.06 0.06 75 1006.8
20260831041430 59 268 16.0 33.0 0.00 0.06 0.06 71 1006.4
20260831035925 60 266 21.0 31.0 0.00 0.06 0.06 69 1006.2
20260831034427 60 246 12.0 26.0 0.00 0.06 0.06 69 1006.3
20260831032922 60 246 18.0 30.0 0.00 0.06 0.06 69 1006.3
20260831031422 60 243 22.0 29.0 0.00 0.06 0.06 71 1006.4
20260831025919 59 252 17.0 31.0 0.01 0.06 0.06 72 1006.5
20260831024418 58 241 14.0 30.0 0.01 0.06 0.06 76 1006.7
20260831022915 60 234 23.0 35.0 0.01 0.06 0.06 69 1006.6
20260831021416 59 227 19.0 27.0 0.04 0.06 0.06 75 1006.8
20260831015910 61 236 22.0 35.0 0.03 0.05 0.05 69 1006.6
20260831014405 60 248 27.0 43.0 0.03 0.05 0.05 72 1006.7
20260831012906 59 242 16.0 27.0 0.04 0.05 0.05 75 1006.8
20260831012829 60 231 24.0 34.0 0.01 0.02 0.02 71 1007.0
20260831005857 60 0 25.0 39.0 0.01 0.02 0.02 73 1007.2
20260831004359 60 238 22.0 34.0 0.01 0.02 0.02 72 1007.3
20260831002854 61 219 20.0 39.0 0.00 0.01 0.01 71 1007.0
20260831001354 60 243 22.0 35.0 0.00 0.01 0.01 71 1007.2
20260830235850 60 275 25.0 34.0 0.00 0.01 0.01 68 1007.4
20260830234352 61 264 26.0 35.0 0.00 0.01 0.01 67 1007.6
20260830232850 60 265 26.0 35.0 0.00 0.01 0.01 68 1007.9
20260830231346 60 245 19.0 31.0 0.00 0.01 0.01 67 1008.0
20260830225846 60 263 23.0 35.0 0.00 0.01 0.01 67 1008.0
20260830224342 60 253 21.0 29.0 0.00 0.01 0.01 68 1008.0
20260830222843 60 233 21.0 27.0 0.00 0.01 0.01 67 1007.9
20260830221338 59 0 17.0 24.0 0.00 0.01 0.01 70 1008.3
20260830220532 59 227 19.0 31.0 0.00 0.01 0.01 70 1008.2
20260830214334 58 236 16.0 26.0 0.00 0.01 0.01 75 1008.4
20260830212829 57 263 20.0 32.0 0.00 0.01 0.01 74 1008.2
20260830211331 58 254 21.0 32.0 0.00 0.01 0.01 73 1008.3
20260830210528 58 271 19.0 31.0 0.00 0.01 0.01 71 1008.4
20260830204322 57 236 22.0 32.0 0.00 0.01 0.01 71 1008.3
20260830203515 57 0 17.0 28.0 0.00 0.01 0.01 72 1008.4
20260830201318 57 261 18.0 30.0 0.00 0.01 0.01 73 1008.3
20260830195818 56 300 19.0 26.0 0.00 0.01 0.01 72 1008.4
20260830194314 56 254 18.0 26.0 0.00 0.01 0.01 72 1008.3